| time (UTC) | temp F | wind direction | speed MPH | gust MPH | rain 1hr in | rain 24hr in | rain mn in | humidity % | barometer mb |
| 20260507012653 | 49 | 165 | 5.0 | 13.0 | 0.04 | 1.04 | 0.85 | 87 | 1021.5 |
| 20260507012157 | 49 | 264 | 5.0 | 13.0 | 0.10 | 1.04 | 0.85 | 86 | 1021.6 |
| 20260507011659 | 49 | 237 | 4.0 | 10.0 | 0.03 | 1.03 | 0.85 | 87 | 1021.7 |
| 20260507011143 | 48 | 222 | 3.0 | 10.0 | 0.05 | 1.03 | 0.84 | 86 | 1021.6 |
| 20260507010039 | 48 | 59 | 3.0 | 13.0 | 0.36 | 1.02 | 0.83 | 86 | 1021.6 |
| 20260507005534 | 48 | 309 | 4.0 | 13.0 | 0.00 | 0.99 | 0.81 | 86 | 1021.4 |
| 20260507005035 | 49 | 2 | 5.0 | 13.0 | 0.00 | 0.99 | 0.80 | 86 | 1021.3 |
| 20260507004518 | 49 | 294 | 4.0 | 12.0 | 0.00 | 0.99 | 0.80 | 87 | 1021.2 |
| 20260507004020 | 49 | 37 | 5.0 | 12.0 | 0.03 | 0.99 | 0.80 | 87 | 1021.3 |
| 20260507002245 | 48 | 297 | 5.0 | 13.0 | 0.06 | 0.98 | 0.79 | 87 | 1021.4 |
| 20260507001727 | 48 | 118 | 4.0 | 13.0 | 0.22 | 0.98 | 0.79 | 87 | 1021.4 |
| 20260507001224 | 48 | 44 | 4.0 | 12.0 | 0.37 | 0.96 | 0.77 | 87 | 1021.5 |
| 20260507000721 | 49 | 61 | 3.0 | 8.0 | 0.57 | 0.92 | 0.74 | 88 | 1021.4 |
| 20260507000214 | 48 | 37 | 3.0 | 11.0 | 0.00 | 0.91 | 0.72 | 88 | 1021.1 |
| 20260506235722 | 48 | 357 | 4.0 | 11.0 | 0.00 | 0.91 | 0.72 | 87 | 1020.9 |
| 20260506235225 | 47 | 39 | 5.0 | 14.0 | 0.03 | 0.91 | 0.72 | 87 | 1020.9 |
| 20260506234713 | 48 | 240 | 6.0 | 14.0 | 0.04 | 0.91 | 0.72 | 87 | 1020.9 |
| 20260506234219 | 47 | 252 | 6.0 | 14.0 | 0.09 | 0.91 | 0.72 | 86 | 1021.0 |
| 20260506233719 | 48 | 260 | 5.0 | 14.0 | 0.33 | 0.90 | 0.71 | 85 | 1021.4 |
| 20260506233225 | 48 | 262 | 4.0 | 12.0 | 1.62 | 0.85 | 0.67 | 85 | 1021.5 |
| 20260506232720 | 48 | 331 | 3.0 | 9.0 | 0.00 | 0.81 | 0.62 | 85 | 1021.2 |
| 20260506231551 | 48 | 284 | 2.0 | 9.0 | 0.00 | 0.81 | 0.62 | 87 | 1020.7 |
| 20260506231046 | 47 | 271 | 3.0 | 9.0 | 0.00 | 0.81 | 0.62 | 87 | 1020.7 |
| 20260506230551 | 47 | 288 | 2.0 | 8.0 | 0.03 | 0.81 | 0.62 | 87 | 1020.8 |
| 20260506230053 | 46 | 76 | 3.0 | 11.0 | 0.05 | 0.81 | 0.62 | 86 | 1020.7 |
| 20260506225554 | 47 | 329 | 4.0 | 11.0 | 0.11 | 0.81 | 0.62 | 86 | 1020.6 |
| 20260506225037 | 47 | 219 | 5.0 | 14.0 | 0.24 | 0.81 | 0.62 | 85 | 1021.0 |
| 20260506224531 | 47 | 198 | 6.0 | 14.0 | 0.33 | 0.77 | 0.59 | 84 | 1021.1 |
| 20260506224035 | 48 | 262 | 6.0 | 16.0 | 0.06 | 0.74 | 0.55 | 85 | 1021.0 |
| 20260506223533 | 48 | 82 | 7.0 | 16.0 | 0.15 | 0.74 | 0.55 | 83 | 1020.7 |
| 20260506223037 | 48 | 289 | 6.0 | 16.0 | 0.37 | 0.73 | 0.54 | 83 | 1020.5 |
| 20260506222518 | 49 | 265 | 5.0 | 16.0 | 0.00 | 0.70 | 0.51 | 84 | 1020.1 |
| 20260506222024 | 48 | 291 | 6.0 | 14.0 | 0.00 | 0.70 | 0.51 | 85 | 1019.7 |
| 20260506221519 | 48 | 299 | 5.0 | 14.0 | 0.00 | 0.70 | 0.51 | 85 | 1019.7 |
| 20260506221004 | 48 | 291 | 5.0 | 14.0 | 0.00 | 0.70 | 0.51 | 85 | 1020.0 |
| 20260506220452 | 48 | 309 | 5.0 | 17.0 | 0.00 | 0.70 | 0.51 | 86 | 1020.1 |
| 20260506215935 | 47 | 318 | 4.0 | 17.0 | 0.03 | 0.70 | 0.51 | 86 | 1019.9 |
| 20260506215441 | 47 | 243 | 6.0 | 19.0 | 0.03 | 0.70 | 0.51 | 85 | 1019.8 |
| 20260506214950 | 47 | 309 | 7.0 | 19.0 | 0.07 | 0.70 | 0.51 | 87 | 1019.8 |
| 20260506214435 | 46 | 172 | 6.0 | 19.0 | 0.09 | 0.70 | 0.51 | 86 | 1019.5 |
| 20260506213930 | 47 | 105 | 6.0 | 19.0 | 0.19 | 0.69 | 0.50 | 87 | 1020.0 |
| 20260506213430 | 47 | 78 | 6.0 | 15.0 | 0.24 | 0.66 | 0.48 | 87 | 1019.9 |
| 20260506212936 | 47 | 303 | 6.0 | 15.0 | 0.13 | 0.66 | 0.47 | 87 | 1019.7 |
| 20260506212430 | 47 | 316 | 6.0 | 13.0 | 0.18 | 0.64 | 0.45 | 86 | 1019.6 |
| 20260506211250 | 47 | 10 | 5.0 | 15.0 | 0.35 | 0.59 | 0.40 | 86 | 1019.4 |
| 20260506210735 | 47 | 294 | 6.0 | 15.0 | 0.07 | 0.58 | 0.39 | 85 | 1019.4 |
| 20260506210232 | 47 | 324 | 6.0 | 15.0 | 0.14 | 0.58 | 0.39 | 85 | 1019.1 |
| 20260506205729 | 47 | 32 | 6.0 | 18.0 | 0.43 | 0.55 | 0.37 | 85 | 1019.2 |
| 20260506205219 | 47 | 110 | 6.0 | 18.0 | 0.16 | 0.53 | 0.34 | 85 | 1018.9 |
| 20260506204659 | 47 | 49 | 6.0 | 18.0 | 0.05 | 0.51 | 0.33 | 86 | 1019.1 |
| 20260506203545 | 48 | 16 | 7.0 | 17.0 | 0.13 | 0.51 | 0.32 | 84 | 1018.6 |
| 20260506203035 | 48 | 286 | 6.0 | 17.0 | 0.03 | 0.49 | 0.30 | 85 | 1018.4 |
| 20260506202517 | 48 | 118 | 6.0 | 17.0 | 0.05 | 0.48 | 0.29 | 85 | 1018.5 |
| 20260506202026 | 47 | 298 | 6.0 | 16.0 | 0.05 | 0.48 | 0.29 | 85 | 1018.3 |
| 20260506201528 | 48 | 82 | 7.0 | 16.0 | 0.06 | 0.48 | 0.29 | 84 | 1018.5 |
| 20260506201032 | 48 | 299 | 7.0 | 16.0 | 0.22 | 0.48 | 0.29 | 84 | 1018.6 |
| 20260506200524 | 48 | 222 | 7.0 | 15.0 | 0.11 | 0.45 | 0.27 | 84 | 1018.5 |
| 20260506200028 | 48 | 23 | 6.0 | 14.0 | 0.37 | 0.44 | 0.25 | 85 | 1018.3 |
| 20260506195519 | 48 | 18 | 5.0 | 14.0 | 0.14 | 0.42 | 0.23 | 85 | 1018.5 |
| 20260506195012 | 48 | 141 | 6.0 | 15.0 | 0.55 | 0.40 | 0.22 | 86 | 1018.7 |
| 20260506194509 | 48 | 235 | 7.0 | 15.0 | 0.03 | 0.40 | 0.21 | 86 | 1018.3 |
| 20260506193954 | 47 | 6 | 8.0 | 20.0 | 0.03 | 0.40 | 0.21 | 86 | 1018.2 |
| 20260506193448 | 47 | 308 | 8.0 | 20.0 | 0.07 | 0.40 | 0.21 | 86 | 1018.0 |
| 20260506192931 | 47 | 234 | 8.0 | 20.0 | 0.33 | 0.40 | 0.21 | 87 | 1018.0 |
| 20260506192412 | 47 | 264 | 8.0 | 20.0 | 0.00 | 0.38 | 0.19 | 86 | 1018.1 |
| 20260506191905 | 47 | 259 | 8.0 | 17.0 | 0.00 | 0.38 | 0.19 | 87 | 1018.3 |
| 20260506191406 | 47 | 285 | 7.0 | 17.0 | 0.00 | 0.38 | 0.19 | 87 | 1018.1 |
| 20260506190846 | 46 | 254 | 6.0 | 16.0 | 0.03 | 0.38 | 0.19 | 87 | 1018.2 |
| 20260506190332 | 46 | 281 | 5.0 | 10.0 | 0.06 | 0.38 | 0.19 | 87 | 1018.2 |
| 20260506184527 | 46 | 282 | 3.0 | 11.0 | 0.07 | 0.36 | 0.17 | 87 | 1018.2 |
| 20260506184027 | 45 | 56 | 2.0 | 11.0 | 0.03 | 0.35 | 0.16 | 86 | 1018.1 |
| 20260506183508 | 45 | 128 | 4.0 | 13.0 | 0.04 | 0.34 | 0.15 | 85 | 1018.2 |
| 20260506181712 | 48 | 190 | 7.0 | 17.0 | 0.50 | 0.28 | 0.10 | 84 | 1018.8 |
| 20260506181158 | 48 | 272 | 7.0 | 17.0 | 0.41 | 0.24 | 0.05 | 82 | 1018.5 |
| 20260506180642 | 48 | 300 | 7.0 | 17.0 | 0.00 | 0.19 | 0.00 | 81 | 1018.2 |
| 20260506180133 | 48 | 2 | 6.0 | 17.0 | 0.00 | 0.18 | 0.00 | 80 | 1018.1 |
| 20260506175619 | 48 | 249 | 5.0 | 14.0 | 0.00 | 0.18 | 0.00 | 80 | 1017.8 |
| 20260506175107 | 48 | 322 | 6.0 | 14.0 | 0.00 | 0.18 | 0.00 | 80 | 1017.8 |
| 20260506174555 | 48 | 338 | 6.0 | 14.0 | 0.00 | 0.18 | 0.00 | 80 | 1017.5 |
| 20260506174049 | 49 | 253 | 4.0 | 13.0 | 0.00 | 0.18 | 0.00 | 80 | 1017.6 |
| 20260506172307 | 49 | 27 | 5.0 | 12.0 | 0.00 | 0.18 | 0.00 | 79 | 1017.5 |
| 20260506171801 | 49 | 114 | 5.0 | 12.0 | 0.00 | 0.18 | 0.00 | 80 | 1017.8 |
| 20260506171244 | 49 | 330 | 5.0 | 12.0 | 0.00 | 0.18 | 0.00 | 81 | 1017.9 |
| 20260506170730 | 49 | 127 | 6.0 | 16.0 | 0.00 | 0.18 | 0.00 | 80 | 1018.0 |
| 20260506170213 | 49 | 261 | 7.0 | 16.0 | 0.00 | 0.18 | 0.00 | 80 | 1018.1 |
| 20260506165040 | 49 | 309 | 6.0 | 13.0 | 0.00 | 0.18 | 0.00 | 80 | 1018.1 |
| 20260506164542 | 49 | 294 | 7.0 | 13.0 | 0.00 | 0.18 | 0.00 | 79 | 1018.2 |
| 20260506164024 | 49 | 9 | 7.0 | 16.0 | 0.00 | 0.18 | 0.00 | 79 | 1018.1 |
| 20260506163530 | 49 | 217 | 7.0 | 16.0 | 0.00 | 0.18 | 0.00 | 78 | 1018.1 |
| 20260506163018 | 49 | 50 | 7.0 | 16.0 | 0.00 | 0.18 | 0.00 | 78 | 1017.8 |
| 20260506161837 | 50 | 296 | 6.0 | 14.0 | 0.00 | 0.18 | 0.00 | 77 | 1017.6 |
| 20260506161323 | 50 | 106 | 5.0 | 14.0 | 0.00 | 0.18 | 0.00 | 76 | 1017.6 |
| 20260506160203 | 50 | 251 | 4.0 | 12.0 | 0.00 | 0.18 | 0.00 | 75 | 1017.4 |
| 20260506155648 | 50 | 34 | 4.0 | 13.0 | 0.00 | 0.18 | 0.00 | 75 | 1017.3 |
| 20260506155154 | 50 | 250 | 4.0 | 13.0 | 0.00 | 0.18 | 0.00 | 78 | 1017.4 |
| 20260506154643 | 50 | 27 | 5.0 | 13.0 | 0.00 | 0.18 | 0.00 | 77 | 1017.5 |
| 20260506154127 | 50 | 309 | 6.0 | 13.0 | 0.00 | 0.18 | 0.00 | 79 | 1017.7 |
| 20260506152311 | 50 | 242 | 6.0 | 16.0 | 0.00 | 0.18 | 0.00 | 78 | 1017.8 |
| 20260506151815 | 50 | 289 | 6.0 | 16.0 | 0.00 | 0.18 | 0.00 | 78 | 1017.8 |
| 20260506150643 | 50 | 250 | 6.0 | 16.0 | 0.00 | 0.18 | 0.00 | 79 | 1017.8 |
| 20260506150142 | 50 | 315 | 7.0 | 16.0 | 0.00 | 0.18 | 0.00 | 79 | 1017.7 |
| 20260506145647 | 51 | 336 | 6.0 | 16.0 | 0.00 | 0.18 | 0.00 | 78 | 1017.8 |
| 20260506145145 | 51 | 118 | 5.0 | 13.0 | 0.00 | 0.18 | 0.00 | 77 | 1017.9 |
| 20260506144634 | 51 | 95 | 4.0 | 12.0 | 0.00 | 0.18 | 0.00 | 78 | 1017.8 |
| 20260506143510 | 51 | 324 | 4.0 | 12.0 | 0.00 | 0.18 | 0.00 | 77 | 1017.7 |
| 20260506142954 | 51 | 21 | 4.0 | 12.0 | 0.00 | 0.18 | 0.00 | 77 | 1017.7 |
| 20260506142446 | 51 | 300 | 4.0 | 11.0 | 0.00 | 0.18 | 0.00 | 76 | 1017.6 |
| 20260506141950 | 51 | 179 | 4.0 | 10.0 | 0.00 | 0.18 | 0.00 | 77 | 1017.6 |
| 20260506135554 | 51 | 352 | 5.0 | 12.0 | 0.00 | 0.18 | 0.18 | 78 | 1017.6 |
| 20260506135047 | 51 | 28 | 5.0 | 14.0 | 0.00 | 0.18 | 0.18 | 78 | 1017.6 |
| 20260506134552 | 51 | 21 | 6.0 | 14.0 | 0.00 | 0.18 | 0.18 | 78 | 1017.5 |
| 20260506134043 | 51 | 30 | 6.0 | 16.0 | 0.00 | 0.18 | 0.18 | 78 | 1017.4 |
| 20260506133528 | 51 | 312 | 7.0 | 16.0 | 0.00 | 0.18 | 0.18 | 78 | 1017.4 |
| 20260506133025 | 51 | 283 | 7.0 | 16.0 | 0.00 | 0.18 | 0.18 | 78 | 1017.4 |
| 20260506131901 | 51 | 274 | 7.0 | 16.0 | 0.00 | 0.18 | 0.18 | 78 | 1017.4 |
| 20260506131358 | 51 | 276 | 7.0 | 16.0 | 0.00 | 0.17 | 0.17 | 76 | 1017.3 |
| 20260506125540 | 52 | 299 | 6.0 | 16.0 | 0.00 | 0.17 | 0.17 | 75 | 1017.3 |
| 20260506125030 | 52 | 277 | 7.0 | 16.0 | 0.00 | 0.17 | 0.17 | 74 | 1017.2 |
| 20260506124527 | 53 | 311 | 7.0 | 15.0 | 0.00 | 0.17 | 0.17 | 76 | 1017.2 |
| 20260506124028 | 53 | 15 | 7.0 | 15.0 | 0.00 | 0.16 | 0.16 | 78 | 1017.1 |
| 20260506123513 | 53 | 296 | 6.0 | 14.0 | 0.00 | 0.16 | 0.16 | 79 | 1017.1 |
| 20260506122345 | 53 | 247 | 6.0 | 16.0 | 0.00 | 0.15 | 0.15 | 79 | 1017.0 |
| 20260506121838 | 53 | 293 | 5.0 | 16.0 | 0.00 | 0.15 | 0.15 | 80 | 1017.1 |
| 20260506121328 | 53 | 295 | 6.0 | 16.0 | 0.00 | 0.15 | 0.15 | 81 | 1017.1 |
| 20260506120832 | 53 | 331 | 5.0 | 16.0 | 0.00 | 0.15 | 0.15 | 81 | 1017.1 |
| 20260506120335 | 53 | 214 | 5.0 | 13.0 | 0.00 | 0.15 | 0.15 | 82 | 1017.1 |
| 20260506115840 | 53 | 309 | 6.0 | 11.0 | 0.00 | 0.15 | 0.15 | 82 | 1017.1 |
| 20260506115335 | 53 | 284 | 6.0 | 16.0 | 0.00 | 0.15 | 0.15 | 82 | 1016.8 |
| 20260506114834 | 53 | 284 | 6.0 | 16.0 | 0.00 | 0.15 | 0.15 | 82 | 1016.8 |
| 20260506113652 | 53 | 282 | 6.0 | 16.0 | 0.00 | 0.15 | 0.15 | 82 | 1016.8 |
| 20260506113145 | 54 | 264 | 6.0 | 14.0 | 0.00 | 0.15 | 0.15 | 82 | 1016.7 |
| 20260506112637 | 54 | 321 | 6.0 | 13.0 | 0.00 | 0.15 | 0.15 | 83 | 1016.6 |
| 20260506112142 | 54 | 354 | 6.0 | 13.0 | 0.00 | 0.15 | 0.15 | 82 | 1016.5 |
| 20260506111623 | 54 | 269 | 6.0 | 13.0 | 0.00 | 0.15 | 0.15 | 82 | 1016.5 |
| 20260506111130 | 54 | 257 | 6.0 | 9.0 | 0.00 | 0.15 | 0.15 | 83 | 1016.4 |
| 20260506110705 | 54 | 269 | 7.0 | 17.0 | 0.03 | 0.15 | 0.15 | 83 | 1016.3 |
| 20260506110200 | 54 | 164 | 8.0 | 17.0 | 0.05 | 0.15 | 0.15 | 84 | 1016.5 |
| 20260506105645 | 54 | 300 | 7.0 | 17.0 | 0.13 | 0.15 | 0.15 | 85 | 1016.4 |
| 20260506105137 | 54 | 327 | 7.0 | 17.0 | 0.00 | 0.14 | 0.14 | 86 | 1016.4 |
| 20260506104646 | 54 | 312 | 7.0 | 15.0 | 0.00 | 0.14 | 0.14 | 86 | 1016.3 |
| 20260506104140 | 54 | 300 | 7.0 | 15.0 | 0.00 | 0.14 | 0.14 | 88 | 1016.3 |
| 20260506102333 | 54 | 354 | 8.0 | 16.0 | 0.00 | 0.14 | 0.14 | 90 | 1016.0 |
| 20260506101821 | 54 | 193 | 7.0 | 15.0 | 0.00 | 0.14 | 0.14 | 90 | 1015.9 |
| 20260506101312 | 55 | 328 | 7.0 | 15.0 | 0.00 | 0.14 | 0.14 | 90 | 1015.8 |
| 20260506100758 | 55 | 269 | 7.0 | 15.0 | 0.00 | 0.14 | 0.14 | 91 | 1015.7 |
| 20260506100308 | 55 | 328 | 7.0 | 15.0 | 0.00 | 0.14 | 0.14 | 91 | 1015.6 |
| 20260506095808 | 55 | 276 | 7.0 | 14.0 | 0.00 | 0.14 | 0.14 | 91 | 1015.6 |
| 20260506095254 | 55 | 312 | 7.0 | 14.0 | 0.00 | 0.14 | 0.14 | 90 | 1015.5 |
| 20260506093517 | 56 | 231 | 6.0 | 14.0 | 0.00 | 0.14 | 0.14 | 91 | 1015.2 |
| 20260506093023 | 56 | 262 | 7.0 | 18.0 | 0.00 | 0.14 | 0.14 | 90 | 1014.9 |
| 20260506092514 | 56 | 31 | 7.0 | 18.0 | 0.00 | 0.14 | 0.14 | 90 | 1014.7 |
| 20260506092012 | 56 | 276 | 7.0 | 18.0 | 0.00 | 0.14 | 0.14 | 90 | 1014.7 |
| 20260506090838 | 57 | 26 | 3.0 | 11.0 | 0.00 | 0.13 | 0.13 | 91 | 1014.5 |
| 20260506090330 | 57 | 267 | 2.0 | 10.0 | 0.00 | 0.13 | 0.13 | 91 | 1014.3 |
| 20260506085826 | 57 | 279 | 2.0 | 6.0 | 0.00 | 0.13 | 0.13 | 91 | 1014.3 |
| 20260506085318 | 57 | 316 | 1.0 | 9.0 | 0.00 | 0.13 | 0.13 | 91 | 1014.3 |
| 20260506084802 | 57 | 328 | 2.0 | 9.0 | 0.00 | 0.13 | 0.13 | 91 | 1014.2 |
| 20260506083633 | 57 | 323 | 3.0 | 9.0 | 0.00 | 0.13 | 0.13 | 90 | 1014.2 |
| 20260506083141 | 57 | 12 | 3.0 | 9.0 | 0.00 | 0.13 | 0.13 | 90 | 1014.2 |
| 20260506082640 | 57 | 18 | 2.0 | 9.0 | 0.00 | 0.13 | 0.13 | 90 | 1014.3 |
| 20260506080856 | 57 | 269 | 6.0 | 17.0 | 0.00 | 0.13 | 0.13 | 88 | 1014.2 |
| 20260506073044 | 60 | 352 | 2.0 | 8.0 | 0.15 | 0.01 | 0.01 | 75 | 1013.5 |
| 20260506071908 | 62 | 288 | 3.0 | 9.0 | 0.00 | 0.00 | 0.00 | 70 | 1013.4 |
| 20260506071416 | 63 | 340 | 2.0 | 9.0 | 0.00 | 0.00 | 0.00 | 68 | 1013.3 |
| 20260506070308 | 63 | 1 | 3.0 | 13.0 | 0.00 | 0.00 | 0.00 | 64 | 1013.1 |
| 20260506062120 | 64 | 347 | 5.0 | 12.0 | 0.00 | 0.00 | 0.00 | 64 | 1013.6 |
| 20260506061628 | 64 | 319 | 5.0 | 12.0 | 0.00 | 0.00 | 0.00 | 63 | 1013.6 |
| 20260506061128 | 64 | 345 | 4.0 | 12.0 | 0.00 | 0.00 | 0.00 | 62 | 1013.7 |
| 20260506060633 | 64 | 302 | 4.0 | 15.0 | 0.00 | 0.00 | 0.00 | 62 | 1013.6 |
| 20260506051010 | 65 | 357 | 5.0 | 13.0 | 0.00 | 0.00 | 0.00 | 59 | 1014.3 |
| 20260506050512 | 65 | 349 | 4.0 | 11.0 | 0.00 | 0.00 | 0.00 | 59 | 1014.4 |
| 20260506045008 | 65 | 6 | 4.0 | 11.0 | 0.00 | 0.00 | 0.00 | 59 | 1014.7 |
| 20260506044512 | 66 | 344 | 4.0 | 10.0 | 0.00 | 0.00 | 0.00 | 58 | 1014.9 |
| 20260506044014 | 65 | 41 | 4.0 | 10.0 | 0.00 | 0.00 | 0.00 | 58 | 1014.9 |
| 20260506043506 | 65 | 347 | 4.0 | 9.0 | 0.00 | 0.00 | 0.00 | 59 | 1014.9 |
| 20260506042405 | 65 | 267 | 4.0 | 12.0 | 0.00 | 0.00 | 0.00 | 59 | 1015.2 |
| 20260506041252 | 65 | 299 | 4.0 | 13.0 | 0.00 | 0.00 | 0.00 | 58 | 1015.2 |
| 20260506040733 | 65 | 18 | 4.0 | 13.0 | 0.00 | 0.00 | 0.00 | 59 | 1015.2 |
| 20260506040239 | 65 | 48 | 5.0 | 13.0 | 0.00 | 0.00 | 0.00 | 59 | 1015.3 |
| 20260506035745 | 65 | 66 | 4.0 | 11.0 | 0.00 | 0.00 | 0.00 | 59 | 1015.4 |
| 20260506035235 | 65 | 333 | 4.0 | 11.0 | 0.00 | 0.00 | 0.00 | 60 | 1015.5 |
| 20260506034737 | 65 | 18 | 4.0 | 10.0 | 0.00 | 0.00 | 0.00 | 59 | 1015.6 |
| 20260506034242 | 65 | 303 | 4.0 | 10.0 | 0.00 | 0.00 | 0.00 | 60 | 1015.8 |
| 20260506033734 | 64 | 345 | 4.0 | 10.0 | 0.00 | 0.00 | 0.00 | 60 | 1015.9 |
| 20260506033240 | 64 | 23 | 4.0 | 8.0 | 0.00 | 0.00 | 0.00 | 60 | 1016.0 |
| 20260506031452 | 64 | 283 | 3.0 | 10.0 | 0.00 | 0.00 | 0.00 | 61 | 1016.2 |
| 20260506030937 | 64 | 326 | 3.0 | 10.0 | 0.00 | 0.00 | 0.00 | 61 | 1016.3 |
| 20260506030445 | 64 | 307 | 3.0 | 8.0 | 0.00 | 0.00 | 0.00 | 62 | 1016.3 |
| 20260506025931 | 64 | 9 | 2.0 | 8.0 | 0.00 | 0.00 | 0.00 | 61 | 1016.5 |
| 20260506025424 | 64 | 258 | 2.0 | 6.0 | 0.00 | 0.00 | 0.00 | 62 | 1016.5 |
| 20260506024923 | 64 | 329 | 2.0 | 8.0 | 0.00 | 0.00 | 0.00 | 62 | 1016.6 |
| 20260506024414 | 64 | 283 | 2.0 | 8.0 | 0.00 | 0.00 | 0.00 | 61 | 1016.8 |
| 20260506023908 | 64 | 264 | 2.0 | 8.0 | 0.00 | 0.00 | 0.00 | 60 | 1016.9 |
| 20260506023354 | 64 | 333 | 2.0 | 8.0 | 0.00 | 0.00 | 0.00 | 60 | 1017.0 |
| 20260506022851 | 64 | 328 | 2.0 | 8.0 | 0.00 | 0.00 | 0.00 | 60 | 1017.1 |
| 20260506022344 | 64 | 46 | 2.0 | 8.0 | 0.00 | 0.00 | 0.00 | 60 | 1017.2 |
| 20260506021839 | 64 | 314 | 2.0 | 8.0 | 0.00 | 0.00 | 0.00 | 60 | 1017.4 |
| 20260506021328 | 64 | 292 | 2.0 | 7.0 | 0.00 | 0.00 | 0.00 | 60 | 1017.5 |
| 20260506020828 | 64 | 14 | 2.0 | 7.0 | 0.00 | 0.00 | 0.00 | 62 | 1017.5 |
| 20260506020327 | 63 | 253 | 2.0 | 7.0 | 0.00 | 0.00 | 0.00 | 63 | 1017.7 |
| 20260506015833 | 63 | 342 | 2.0 | 7.0 | 0.00 | 0.00 | 0.00 | 64 | 1017.8 |
| 20260506015336 | 62 | 283 | 2.0 | 7.0 | 0.00 | 0.00 | 0.00 | 64 | 1017.9 |
| 20260506014833 | 62 | 328 | 2.0 | 6.0 | 0.00 | 0.00 | 0.00 | 65 | 1018.0 |
| 20260506014335 | 62 | 312 | 1.0 | 10.0 | 0.00 | 0.00 | 0.00 | 65 | 1018.1 |
| 20260506013831 | 62 | 16 | 2.0 | 10.0 | 0.00 | 0.00 | 0.00 | 65 | 1018.3 |
| 20260506013330 | 62 | 328 | 3.0 | 10.0 | 0.00 | 0.00 | 0.00 | 65 | 1018.5 |
| 20260506012838 | 62 | 272 | 3.0 | 10.0 | 0.00 | 0.00 | 0.00 | 65 | 1018.6 |